Weather Roundup
Issued by NWS

Home | Current Version | Previous Version | Text Only | Print | Product List | Glossary On
Versions: 1 2 3 4 5 6 7 8 9 10 11 12 13 14 15 16 17 18 19 20 21 22 23 24 25 26 27 28 29 30 31 32 33 34 35 36 37 38 39 40 41 42 43 44 45 46 47 48 49 50
000
NZUS93 KARX 311310
HRRWXR

CURRENT HOURLY OBSERVATIONS ACROSS
MUCH OF THE UPPER MISSISSIPPI VALLEY
NATIONAL WEATHER SERVICE LA CROSSE WI
800 AM CDT THU JUL 31 2014


...SOUTHEAST MINNESOTA...


CITY           SKY/WX    TMP DP  RH WIND       PRES   REMARKS
ROCHESTER      SUNNY     61  56  83 W5        30.08R
ROCHESTER/MAYO FAIR      61  54  77 W5        30.07R
WINONA         SUNNY     63  57  82 CALM      30.04R
AUSTIN         SUNNY     63  57  82 W5        30.07S
ALBERT LEA     MOSUNNY   64  55  72 CALM      30.08S
DODGE CENTER   SUNNY     61  57  88 W5        30.07R
PRESTON        SUNNY     62  60  94 W8        30.07S
OWATONNA       SUNNY     61  57  88 CALM      30.07S
FARIBAULT      SUNNY     64  55  72 CALM      30.06S
$$

...ELSEWHERE IN MINNESOTA...


CITY           SKY/WX    TMP DP  RH WIND       PRES   REMARKS
MINNEAPOLIS    MOSUNNY   64  59  83 SW3       30.05R
INTNL FALLS    SUNNY     57  57 100 CALM      30.00S
DULUTH         SUNNY     63  57  81 N3        30.00R
RED WING       SUNNY     63  61  94 W3        30.03S
REDWOOD FALLS  PTSUNNY   63  55  75 W6        30.07S
MANKATO        PTSUNNY   61  54  77 W3        30.07S
WORTHINGTON    SUNNY     63  57  82 CALM      30.11S
FAIRMONT       SUNNY     64  55  72 W6        30.09R
$$

...SOUTHWEST WISCONSIN...


CITY           SKY/WX    TMP DP  RH WIND       PRES   REMARKS
LA CROSSE      SUNNY     66  59  78 S6        30.03R
PRAIRIE DU CHI SUNNY     64  58  82 CALM      30.05R
BOSCOBEL       SUNNY     63  60  90 SW3       30.05R
LONE ROCK      PTSUNNY   63  59  87 W5        30.04R FOG
PLATTEVILLE    SUNNY     62  61  96 W6        30.07R
FORT MC COY    SUNNY     59  57  93 CALM      30.04R
CAMP DOUGLAS   SUNNY     64  64 100 W7        30.02R
VIROQUA        FAIR      62  62 100 W3        30.05S
WIS DELLS      SUNNY     64  57  78 W6        30.02S
$$

...ELSEWHERE IN WISCONSIN...


CITY           SKY/WX    TMP DP  RH WIND       PRES   REMARKS
MILWAUKEE      MOSUNNY   66  56  70 W7        30.01S
MADISON        SUNNY     67  59  75 NW5       30.02R
GREEN BAY      SUNNY     62  60  93 W6        29.98S
EAU CLAIRE     SUNNY     62  59  90 SW5       30.01S
BLACK RVR FLS  FAIR      60  60 100 CALM      30.02R FOG
MEDFORD        MOSUNNY   60  58  96 W6        30.02R
WAUSAU         SUNNY     61  59  93 NW8       29.99S
WIS RAPIDS     SUNNY     61  59  93 W5        30.02R
MARSHFIELD     SUNNY     63  60  90 NW9       30.01R
RICE LAKE      MOSUNNY   61  59  94 CALM      30.03S
$$

...NORTHEAST IOWA...


CITY           SKY/WX    TMP DP  RH WIND       PRES   REMARKS
WATERLOO       SUNNY     62  58  86 W5        30.08R
DUBUQUE        SUNNY     61  60  97 SW5       30.07R
DECORAH        SUNNY     61  57  88 W3        30.06R
MASON CITY     MOSUNNY   64  58  80 W5        30.10S
CHARLES CITY   SUNNY     61  57  88 W5        30.09S
OELWEIN        SUNNY     61  59  94 NW6       30.09R
$$

...ELSEWHERE IN IOWA...


CITY           SKY/WX    TMP DP  RH WIND       PRES   REMARKS
DES MOINES     SUNNY     63  57  81 W3        30.10S
IOWA CITY      SUNNY     63  60  90 SW3       30.09R
FORT DODGE     SUNNY     59  55  88 CALM      30.11S
MARSHALLTOWN   SUNNY     62  59  90 CALM      30.09R
CEDAR RAPIDS   SUNNY     63  60  90 W3        30.08R
$$

...NORTHERN ILLINOIS...


CITY           SKY/WX    TMP DP  RH WIND       PRES   REMARKS
CHICAGO-OHARE  MOSUNNY   67  53  61 W7        30.03R
DUPAGE         SUNNY     66  57  72 SW6       30.04R
CHICAGO-MIDWAY MOSUNNY   68  58  70 SW7       30.04R
MOLINE         SUNNY     65  61  87 W3        30.07R
ROCKFORD       SUNNY     63  57  81 CALM      30.06R
STERLING       SUNNY     64  61  88 W6        30.06S
PEORIA         SUNNY     67  60  78 CALM      30.08R
$$

NOTE: "FAIR" INDICATES FEW OR NO CLOUDS BELOW 12,000 FEET WITH NO
SIGNIFICANT WEATHER AND/OR OBSTRUCTIONS TO VISIBILITY. WIND
SPEEDS ARE IN MILES-PER-HOUR.



USA.gov is the U.S. government's official web portal to all federal, state and local government web resources and services.